Flag for Germany Weather past 2 weeks in Hof (Saale), Bavaria, Germany

Now
58 °F

Drizzle. Overcast.


Feels Like: 58 °F
Forecast: 51 / 65 °F
Wind: 1 mph from West

Location: Hof

Current Time: Sep 30, 2014 at 10:33:36 PM

Latest Report: Sep 30, 2014 at 10:00 PM


Visibility: 4 mi

Pressure: 30.29 "Hg

Humidity: 95%

Dew point: 57 °F

Location of Hof (Saale)Location

Historic Weather in Hof (Saale) — Graph

°F

Hof (Saale) temperature yesterday

Maximum temperature yesterday: 70 °F (at 2:00 PM)
Minimum temperature yesterday: 48 °F (at 7:00 AM)
Average temperature yesterday: 60 °F

Past Weeks' High & Low Weather Summary

 TemperatureHumidityPressure
High71 °F (Sep 19, 2:00 PM)100% (Sep 16, 2:00 AM)30.43 "Hg (Sep 16, 2:00 AM)
Low37 °F (Sep 24, 6:00 AM)50% (Sep 16, 5:00 PM)29.86 "Hg (Sep 24, 6:00 PM)
Average55 °F84%30.09 "Hg
* Reported Sep 15 9:00 PM — Sep 30 9:00 PM, Hof (Saale), Weather by CustomWeather, © 2014

Note: Actual official high and low records may vary slightly from our data, if they occured in-between our weather recording intervals... More about our weather records

Advertising

Hof (Saale) weather history for previous 24 hours

 ConditionsComfort  
Time TempWeatherWind HumidityBarometerVisibility
9:00 PM
Sep 30
59 °FLight rain. Overcast.2 mph94%30.29 "Hg7 mi
8:00 PM59 °FLight rain. Overcast.2 mph91%30.28 "Hg9 mi
7:00 PM61 °FOvercast.2 mph85%30.26 "Hg16 mi
6:00 PM62 °FOvercast.1 mph79%30.25 "Hg16 mi
5:00 PM63 °FOvercast.3 mph75%30.25 "Hg19 mi
4:00 PM64 °FOvercast.3 mph72%30.25 "Hg22 mi
3:00 PM65 °FOvercast.3 mph69%30.25 "Hg22 mi
2:00 PM64 °FPartly sunny.3 mph71%30.25 "Hg25 mi
1:00 PM64 °FOvercast.3 mph73%30.26 "Hg19 mi
12:00 PM64 °FOvercast.3 mph75%30.25 "Hg19 mi
10:00 AM60 °FOvercast.1 mph87%30.26 "Hg11 mi
9:00 AM58 °FOvercast.1 mph90%30.26 "Hg11 mi
8:00 AM56 °FOvercast.1 mph93%30.27 "Hg9 mi
7:00 AM55 °FOvercast.1 mph93%30.26 "Hg9 mi
6:00 AM56 °FOvercast.1 mph92%30.26 "Hg11 mi
4:00 AM56 °FOvercast.1 mph91%30.26 "Hg10 mi
3:00 AM55 °FOvercast.1 mph93%30.26 "Hg9 mi
2:00 AM54 °FOvercast.2 mph94%30.27 "Hg7 mi
1:00 AM54 °FOvercast.1 mph94%30.28 "Hg9 mi
12:00 AM54 °FOvercast.1 mph93%30.28 "Hg9 mi
11:00 PM
Sep 29
54 °FOvercast.1 mph94%30.28 "Hg10 mi
10:00 PM56 °FPassing clouds.1 mph89%30.27 "Hg12 mi
Weather by CustomWeather, © 2014

See weather overviewHow to use our weather pages